Location: *
(45.1961°N, 1.9694°E)
Time: 20:32:53
(UTC+00:00)

Cosmos 2369 - Pass Details

Date: 25 August 2019
Orbit: 839 x 856 km, 71.0° (Epoch: 23 October)

Event Time Altitude Azimuth Distance (km) Brightness Sun altitude
Rises 20:21:02 0° 334° (NNW) 3,403 8.0 -16.4°
Reaches altitude 10° 20:23:29 10° 335° (NNW) 2,466 7.1 -16.8°
Maximum altitude 20:29:09 87° 65° (ENE) 849 3.6 -17.6°
Enters shadow 20:32:20 27° 154° (SSE) 1,553 4.6 -18.1°
